Location: Caltech
(34.1382°N, 118.1253°W)
Time: 04:16:14
(UTC-07:00)

Cosmos 1758 Rocket - Visible Passes

Search period start: 29 April 2017 00:00
Search period end: 09 May 2017 00:00
Orbit: 601 x 637 km, 82.5° (Epoch: 27 April)

Date Brightness Start Highest point End Pass type
(mag) Time Alt. Az. Time Alt. Az. Time Alt. Az.
29 Apr 5.9 02:43:40 21° NE 02:43:40 21° NE 02:45:28 10° NNE visible
29 Apr 5.6 04:20:50 14° NW 04:20:50 14° NW 04:22:09 10° NW visible
30 Apr 5.4 03:01:09 28° NNE 03:01:09 28° NNE 03:03:14 10° NNE visible
01 May 5.3 03:18:37 26° NNW 03:18:37 26° NNW 03:20:37 10° N visible
02 May 6.6 01:58:54 11° NE 01:58:54 11° NE 01:59:13 10° NE visible
02 May 5.6 03:36:04 19° NW 03:36:04 19° NW 03:37:37 10° NNW visible
03 May 6.2 02:16:20 17° NNE 02:16:20 17° NNE 02:17:28 10° NNE visible
03 May 6.0 03:53:29 11° NW 03:53:29 11° NW 03:53:55 10° NW visible
04 May 5.9 02:33:44 21° NNE 02:33:44 21° NNE 02:35:12 10° N visible
05 May 5.8 02:51:08 20° N 02:51:08 20° N 02:52:33 10° N visible
06 May 5.9 03:08:31 15° NNW 03:08:31 15° NNW 03:09:30 10° NNW visible
07 May 6.4 01:48:44 14° NNE 01:48:44 14° NNE 01:49:29 10° NNE visible
08 May 6.2 02:06:05 17° N 02:06:05 17° N 02:07:10 10° N visible
